Regional Weather Roundup
Issued by NWS

Home | Current Version | Previous Version | Graphics & Text | Print | Product List | Glossary On
Versions: 1 2 3 4 5 6 7 8 9 10 11 12 13 14 15 16 17 18 19 20 21 22 23 24 25 26 27 28 29 30 31 32 33 34 35 36 37 38 39 40 41 42 43 44 45 46 47 48 49 50
242
ASUS45 KCYS 281410
RWRWY

WYOMING REGIONAL WEATHER ROUNDUP
NATIONAL WEATHER SERVICE CHEYENNE WY
700 AM MST TUE FEB 28 2017

NOTE:  "FAIR" INDICATES FEW OR NO CLOUDS BELOW 12,000 FEET
WITH NO SIGNIFICANT WEATHER AND/OR OBSTRUCTIONS TO VISIBILITY.

WYZ001-281500-
YELLOWSTONE NATIONAL PARK

CITY           SKY/WX    TMP DP  RH WIND       PRES   REMARKS
LK YELLOWSTONE   N/A      6   4  91 CALM      29.60F
W YELLOWSTONE  NOT AVBL

$$
WYZ002>013-054>058-071-098>099-281500-
NORTHERN WYOMING

CITY           SKY/WX    TMP DP  RH WIND       PRES   REMARKS
JACKSON        FLURRIES  14  12  92 SW10      29.68S WCI   1
CODY           FAIR      23   5  46 SE6       29.65S WCI  16
GREYBULL       FAIR      21  16  81 SE5       29.69F WCI  15
WORLAND        FAIR      19  11  70 S7        29.70R WCI  10
SHERIDAN       FAIR      19   9  65 S7        29.65F WCI  10
BUFFALO        FAIR      18   7  62 W3        29.63F
GILLETTE       FAIR      21  18  88 W10       29.65S WCI  10
HULETT         CLOUDY    23  19  86 NW3       29.67R
NEWCASTLE      CLOUDY    25  21  86 NW7       29.68S WCI  17

$$
WYZ014>020-022>026-101>103-281500-
CENTRAL WYOMING

CITY           SKY/WX    TMP DP  RH WIND       PRES   REMARKS
BIG PINEY      FAIR     -18 -21  87 NW7       29.73R WCI -35
PINEDALE       FAIR     -15 -20  76 NW7       29.73R WCI -31
DUBOIS         FAIR       9   0  66 NW17G23   29.61R WCI -10
LANDER         FAIR       7  -7  52 NW6       29.69R WCI  -3
RIVERTON       FAIR       8  -3  61 SW8       29.70R WCI  -4
CASPER         FAIR      14   2  58 SW16      29.69F WCI  -2
DOUGLAS        FAIR      15  -1  49 W12       29.69F WCI   2

$$
WYZ021-027>030-104>119-281500-
SOUTHERN WYOMING

CITY           SKY/WX    TMP DP  RH WIND       PRES   REMARKS
EVANSTON       FAIR       9   4  80 SW6       29.73R WCI  -1
KEMMERER       FOG      N/A N/A N/A N5        29.72R VSB 1/2
FORT BRIDGER   FAIR      11   7  85 W13       29.76R WCI  -4
ROCK SPRINGS   FAIR       6   2  83 SW8       29.74R WCI  -7
DIXON            N/A     17  13  84 E6        29.77S WCI   8
RAWLINS        FAIR       4  -1  80 CALM      29.72S
SARATOGA       CLOUDY    16   9  73 SW8       29.73R WCI   5
LARAMIE        FAIR      12   2  64 SE3       29.66F
CHEYENNE       FAIR      21   6  52 NW13G22   29.67F WCI   9
TORRINGTON     FAIR      24   8  50 W12       29.71S WCI  13
PINE BLUFFS    FAIR      27   9  46 SW8       29.70R WCI  18

$$




USA.gov is the U.S. government's official web portal to all federal, state and local government web resources and services.